Regional Weather Roundup
Issued by NWS

Home | Current Version | Previous Version | Text Only | Print | Product List | Glossary On
Versions: 1 2 3 4 5 6 7 8 9 10 11 12 13 14 15 16 17 18 19 20 21 22 23 24 25 26 27 28 29 30 31 32 33 34 35 36 37 38 39 40 41 42 43 44 45 46 47 48 49 50
000
ASUS43 KDTX 221310
RWRMI
MICHIGAN HOURLY REGIONAL WEATHER ROUNDUP
NATIONAL WEATHER SERVICE DETROIT/PONTIAC MI
900 AM EDT FRI SEP 22 2017

NOTE: "FAIR" INDICATES FEW OR NO CLOUDS BELOW 12,000 FEET WITH NO
SIGNIFICANT WEATHER AND/OR OBSTRUCTION TO VISIBILITY.

MIZ047>049-052>055-059>063-066>070-074>076-081>083-221400-
SOUTHEAST LOWER MICHIGAN

CITY           SKY/WX    TMP DP  RH WIND       PRES   REMARKS
ADRIAN         SUNNY     71  67  87 E3        30.13S
ALMA           SUNNY     66  64  93 SW3       30.12S
ANN ARBOR      SUNNY     72  66  81 NE3       30.13R
BAD AXE        SUNNY     70  65  85 CALM      30.14S
CARO           SUNNY     69  64  83 CALM      30.12S
DETROIT CITY   SUNNY     72  68  87 SE5       30.13R
DETROIT          N/A     73  64  73 MISG      30.13S
FLINT          SUNNY     71  65  81 CALM      30.12S
GROSSE ILE     SUNNY     71  66  83 E3        30.11S
HILLSDALE      SUNNY     72  68  88 CALM      30.13S FOG
HOWELL         SUNNY     71  66  84 SE5       30.13S

CITY           SKY/WX    TMP DP  RH WIND       PRES   REMARKS
JACKSON        SUNNY     72  67  84 SE3       30.13R HAZE
LAMBERTVILLE   SUNNY     73  70  92 CALM      30.12S FOG
LANSING        SUNNY     71  67  87 CALM      30.13R FOG
LAPEER         FAIR      69  65  87 CALM      30.14S
MASON          SUNNY     72  68  87 SE6       30.13R
MONROE         SUNNY     73  69  86 CALM      30.11F
MT. CLEMENS    MOSUNNY   70  70 100 E3        30.12S
PONTIAC        MOSUNNY   72  66  81 E3        30.13S
PORT HOPE        N/A     72  63  73 CALM      30.11F
PORT HURON     SUNNY     70  68  94 CALM      30.14S
TRI CITIES     SUNNY     70  66  87 S3        30.12S
MIDLAND        FAIR      68  66  94 CALM      30.11S
TROY           SUNNY     70  66  87 CALM      30.15S
SAGINAW HB     SUNNY     68  63  83 CALM      30.11S
$$
MIZ043>046-050>051-056>058-064>065-071>073-077>080-221400-
SOUTHWEST LOWER MICHIGAN

CITY           SKY/WX    TMP DP  RH WIND       PRES   REMARKS
BATTLE CREEK   SUNNY     71  68  90 CALM      30.13R
BENTON HARBOR  SUNNY     73  68  84 SE3       30.10R HAZE
BIG RAPIDS     SUNNY     64  62  91 CALM      30.11S
COLDWATER      SUNNY     72  72 100 E3        30.12S FOG
FREMONT        FAIR      70  66  88 CALM      30.09S
HOLLAND        SUNNY     72  67  84 S5        30.10S
GRAND RAPIDS   MOSUNNY   72  68  87 SE5       30.11R
IONIA          FAIR      68  65  92 CALM      30.11S
KALAMAZOO      SUNNY     72  67  84 SE3       30.12R
LUDINGTON      MOSUNNY   71  67  86 CALM      30.06F
MARSHALL       SUNNY     70  69  98 CALM      30.12R FOG
MOUNT PLEASANT SUNNY     67  65  91 CALM      30.11S
MUSKEGON       MOSUNNY   74  67  78 SE5       30.08F
SOUTH HAVEN    SUNNY     74  70  87 S3        30.10S
$$
MIZ016>042-221400-
NORTHERN LOWER MICHIGAN

CITY           SKY/WX    TMP DP  RH WIND       PRES   REMARKS
ALPENA         SUNNY     69  68  96 SW5       30.10S
BEAVER ISLAND  SUNNY     72  67  87 S5        30.03F
BELLAIRE       SUNNY     70  68  94 CALM      30.06F
CADILLAC       SUNNY     68  64  84 CALM      30.11S
CHARLEVOIX     SUNNY     72  69  90 SE6       30.07F
FRANKFORT      SUNNY     75  69  81 SE5       30.05S
GAYLORD        MOSUNNY   70  66  87 S7        30.11S
GRAYLING       SUNNY     68  64  89 CALM      30.12S
HARBOR SPRINGS MOSUNNY   69  68  95 CALM      30.06S
HOUGHTON LAKE  SUNNY     70  64  81 CALM      30.13S
MANISTEE       SUNNY     71  67  87 E3        30.06S
OSCODA         PTSUNNY   69  67  93 SW5       30.11S
PELLSTON       SUNNY     67  66  97 SE5       30.06F
ROGERS CITY    MOSUNNY   71  68  89 S9        30.08F
TRAVERSE CITY  MOSUNNY   75  66  73 S5        30.04F
$$
MIZ007>008-015-221400-
EASTERN UPPER MICHIGAN

CITY           SKY/WX    TMP DP  RH WIND       PRES   REMARKS
KINROSS        SUNNY     66  65  96 SE9       30.06F FOG
MACKINAC ISLAN MOSUNNY   71  67  89 S5        30.05S
NEWBERRY       SUNNY     68  67  97 S7        30.02F
S. S. MARIE    MOSUNNY   66  65  96 E5        30.05S FOG
MUNISING         N/A     69  68  96 S9        29.97F
$$
MIZ004>006-011>014-085-221400-
CENTRAL UPPER MICHIGAN

CITY           SKY/WX    TMP DP  RH WIND       PRES   REMARKS
MANISTIQUE     SUNNY     68  62  81 S6        30.01F
ESCANABA       MOSUNNY   65  65 100 CALM      29.99F FOG
MENOMINEE      SUNNY     68  67  96 CALM      30.00S FOG
SAWYER-GWINN   CLOUDY    63  63 100 S7        30.00F FOG
$$
MIZ001>003-009>011-084-221400-
WESTERN UPPER MICHIGAN

CITY           SKY/WX    TMP DP  RH WIND       PRES   REMARKS
IRON MOUNTAIN  MOSUNNY   65  63  93 SE5       29.98F FOG
HOUGHTON       MOSUNNY   70  64  81 S9        29.91S
COPPER HARBOR    N/A     68  64  87 SW10G17   29.88S
IRONWOOD       CLOUDY    71  66  84 S12G18    29.93R
$$

ABBREVIATIONS USED IN REMARKS
   TC - TEMPERATURE IN CELSIUS
  WCI - WIND CHILL INDEX
   HX - HEAT INDEX
  VSB - VISIBILITY





USA.gov is the U.S. government's official web portal to all federal, state and local government web resources and services.